Year,Month,Day,Hour,Minute,Value (Times are PST for temperature in C)
2018,09,17,00,00,8.70
2018,09,17,00,01,8.70
2018,09,17,00,02,8.70
2018,09,17,00,03,8.70
2018,09,17,00,04,8.70
2018,09,17,00,05,8.70
2018,09,17,00,06,8.70
2018,09,17,00,07,8.70
2018,09,17,00,08,8.70
2018,09,17,00,09,8.70
2018,09,17,00,10,8.70
2018,09,17,00,11,8.70
2018,09,17,00,12,8.70
2018,09,17,00,13,8.70
2018,09,17,00,14,8.70
2018,09,17,00,15,8.70
2018,09,17,00,16,8.70
2018,09,17,00,17,8.70
2018,09,17,00,18,8.60
2018,09,17,00,19,8.60
2018,09,17,00,20,8.60
2018,09,17,00,21,8.60
2018,09,17,00,22,8.60
2018,09,17,00,23,8.60
2018,09,17,00,24,8.60
2018,09,17,00,25,8.60
2018,09,17,00,26,8.50
2018,09,17,00,27,8.50
2018,09,17,00,28,8.50
2018,09,17,00,29,8.50
2018,09,17,00,30,8.50
2018,09,17,00,31,8.40
2018,09,17,00,32,8.40
2018,09,17,00,33,8.40
2018,09,17,00,34,8.40
2018,09,17,00,35,8.40
2018,09,17,00,36,8.40
2018,09,17,00,37,8.40
2018,09,17,00,38,8.40
2018,09,17,00,39,8.40
2018,09,17,00,40,8.40
2018,09,17,00,41,8.40
2018,09,17,00,42,8.40
2018,09,17,00,43,8.40
2018,09,17,00,44,8.30
2018,09,17,00,45,8.30
2018,09,17,00,46,8.30
2018,09,17,00,47,8.30
2018,09,17,00,48,8.20
2018,09,17,00,49,8.30
2018,09,17,00,50,8.20
2018,09,17,00,51,8.20
2018,09,17,00,52,8.20
2018,09,17,00,53,8.20
2018,09,17,00,54,8.20
2018,09,17,00,55,8.20
2018,09,17,00,56,8.20
2018,09,17,00,57,8.20
2018,09,17,00,58,8.20
2018,09,17,00,59,8.10
2018,09,17,01,00,8.10
2018,09,17,01,01,8.10
2018,09,17,01,02,8.00
2018,09,17,01,03,8.00
2018,09,17,01,04,8.00
2018,09,17,01,05,8.00
2018,09,17,01,06,7.90
2018,09,17,01,07,7.90
2018,09,17,01,08,7.90
2018,09,17,01,09,7.80
2018,09,17,01,10,7.80
2018,09,17,01,11,7.80
2018,09,17,01,12,7.80
2018,09,17,01,13,7.80
2018,09,17,01,14,7.70
2018,09,17,01,15,7.70
2018,09,17,01,16,7.70
2018,09,17,01,17,7.70
2018,09,17,01,18,7.70
2018,09,17,01,19,7.70
2018,09,17,01,20,7.70
2018,09,17,01,21,7.70
2018,09,17,01,22,7.70
2018,09,17,01,23,7.70
2018,09,17,01,24,7.60
2018,09,17,01,25,7.60
2018,09,17,01,26,7.50
2018,09,17,01,27,7.50
2018,09,17,01,28,7.50
2018,09,17,01,29,7.40
2018,09,17,01,30,7.40
2018,09,17,01,31,7.40
2018,09,17,01,32,7.40
2018,09,17,01,33,7.40
2018,09,17,01,34,7.30
2018,09,17,01,35,7.30
2018,09,17,01,36,7.30
2018,09,17,01,37,7.30
2018,09,17,01,38,7.30
2018,09,17,01,39,7.30
2018,09,17,01,40,7.30
2018,09,17,01,41,7.30
2018,09,17,01,42,7.30
2018,09,17,01,43,7.30
2018,09,17,01,44,7.20
2018,09,17,01,45,7.20
2018,09,17,01,46,7.20
2018,09,17,01,47,7.20
2018,09,17,01,48,7.20
2018,09,17,01,49,7.20
2018,09,17,01,50,7.20
2018,09,17,01,51,7.20
2018,09,17,01,52,7.20
2018,09,17,01,53,7.30
2018,09,17,01,54,7.30
2018,09,17,01,55,7.30
2018,09,17,01,56,7.20
2018,09,17,01,57,7.20
2018,09,17,01,58,7.20
2018,09,17,01,59,7.20
2018,09,17,02,00,7.20
2018,09,17,02,01,7.20
2018,09,17,02,02,7.20
2018,09,17,02,03,7.20
2018,09,17,02,04,7.10
2018,09,17,02,05,7.10
2018,09,17,02,06,7.10
2018,09,17,02,07,7.10
2018,09,17,02,08,7.10
2018,09,17,02,09,7.00
2018,09,17,02,10,7.00
2018,09,17,02,11,7.00
2018,09,17,02,12,7.00
2018,09,17,02,13,6.90
2018,09,17,02,14,6.90
2018,09,17,02,15,6.90
2018,09,17,02,16,6.90
2018,09,17,02,17,6.90
2018,09,17,02,18,6.80
2018,09,17,02,19,6.80
2018,09,17,02,20,6.80
2018,09,17,02,21,6.80
2018,09,17,02,22,6.80
2018,09,17,02,23,6.80
2018,09,17,02,24,6.80
2018,09,17,02,25,6.70
2018,09,17,02,26,6.70
2018,09,17,02,27,6.70
2018,09,17,02,28,6.70
2018,09,17,02,29,6.70
2018,09,17,02,30,6.60
2018,09,17,02,31,6.60
2018,09,17,02,32,6.60
2018,09,17,02,33,6.60
2018,09,17,02,34,6.60
2018,09,17,02,35,6.60
2018,09,17,02,36,6.60
2018,09,17,02,37,6.50
2018,09,17,02,38,6.40
2018,09,17,02,39,6.40
2018,09,17,02,40,6.40
2018,09,17,02,41,6.40
2018,09,17,02,42,6.40
2018,09,17,02,43,6.40
2018,09,17,02,44,6.40
2018,09,17,02,45,6.40
2018,09,17,02,46,6.40
2018,09,17,02,47,6.40
2018,09,17,02,48,6.40
2018,09,17,02,49,6.40
2018,09,17,02,50,6.40
2018,09,17,02,51,6.40
2018,09,17,02,52,6.40
2018,09,17,02,53,6.40
2018,09,17,02,54,6.40
2018,09,17,02,55,6.40
2018,09,17,02,56,6.40
2018,09,17,02,57,6.40
2018,09,17,02,58,6.40
2018,09,17,02,59,6.40
2018,09,17,03,00,6.30
2018,09,17,03,01,6.30
2018,09,17,03,02,6.30
2018,09,17,03,03,6.30
2018,09,17,03,04,6.20
2018,09,17,03,05,6.20
2018,09,17,03,06,6.10
2018,09,17,03,07,6.10
2018,09,17,03,08,6.10
2018,09,17,03,09,6.00
2018,09,17,03,10,6.00
2018,09,17,03,11,6.00
2018,09,17,03,12,5.90
2018,09,17,03,13,5.90
2018,09,17,03,14,5.90
2018,09,17,03,15,5.90
2018,09,17,03,16,5.90
2018,09,17,03,17,5.80
2018,09,17,03,18,5.80
2018,09,17,03,19,5.80
2018,09,17,03,20,5.80
2018,09,17,03,21,5.80
2018,09,17,03,22,5.80
2018,09,17,03,23,5.80
2018,09,17,03,24,5.80
2018,09,17,03,25,5.80
2018,09,17,03,26,5.70
2018,09,17,03,27,5.70
2018,09,17,03,28,5.80
2018,09,17,03,29,5.80
2018,09,17,03,30,5.80
2018,09,17,03,31,5.80
2018,09,17,03,32,5.80
2018,09,17,03,33,5.80
2018,09,17,03,34,5.90
2018,09,17,03,35,5.90
2018,09,17,03,36,5.90
2018,09,17,03,37,5.90
2018,09,17,03,38,5.90
2018,09,17,03,39,5.90
2018,09,17,03,40,5.90
2018,09,17,03,41,5.90
2018,09,17,03,42,5.90
2018,09,17,03,43,5.90
2018,09,17,03,44,5.90
2018,09,17,03,45,5.90
2018,09,17,03,46,5.90
2018,09,17,03,47,6.00
2018,09,17,03,48,6.00
2018,09,17,03,49,5.90
2018,09,17,03,50,5.90
2018,09,17,03,51,5.90
2018,09,17,03,52,5.90
2018,09,17,03,53,5.80
2018,09,17,03,54,5.80
2018,09,17,03,55,5.80
2018,09,17,03,56,5.70
2018,09,17,03,57,5.70
2018,09,17,03,58,5.70
2018,09,17,03,59,5.70
2018,09,17,04,00,5.70
2018,09,17,04,01,5.70
2018,09,17,04,02,5.70
2018,09,17,04,03,5.60
2018,09,17,04,04,5.60
2018,09,17,04,05,5.60
2018,09,17,04,06,5.60
2018,09,17,04,07,5.60
2018,09,17,04,08,5.60
2018,09,17,04,09,5.60
2018,09,17,04,10,5.60
2018,09,17,04,11,5.60
2018,09,17,04,12,5.60
2018,09,17,04,13,5.60
2018,09,17,04,14,5.70
2018,09,17,04,15,5.70
2018,09,17,04,16,5.70
2018,09,17,04,17,5.70
2018,09,17,04,18,5.70
2018,09,17,04,19,5.70
2018,09,17,04,20,5.70
2018,09,17,04,21,5.70
2018,09,17,04,22,5.70
2018,09,17,04,23,5.70
2018,09,17,04,24,5.70
2018,09,17,04,25,5.70
2018,09,17,04,26,5.60
2018,09,17,04,27,5.60
2018,09,17,04,28,5.60
2018,09,17,04,29,5.60
2018,09,17,04,30,5.60
2018,09,17,04,31,5.60
2018,09,17,04,32,5.60
2018,09,17,04,33,5.60
2018,09,17,04,34,5.60
2018,09,17,04,35,5.50
2018,09,17,04,36,5.50
2018,09,17,04,37,5.50
2018,09,17,04,38,5.50
2018,09,17,04,39,5.50
2018,09,17,04,40,5.40
2018,09,17,04,41,5.40
2018,09,17,04,42,5.40
2018,09,17,04,43,5.40
2018,09,17,04,44,5.40
2018,09,17,04,45,5.40
2018,09,17,04,46,5.40
2018,09,17,04,47,5.40
2018,09,17,04,48,5.40
2018,09,17,04,49,5.40
2018,09,17,04,50,5.40
2018,09,17,04,51,5.40
2018,09,17,04,52,5.50
2018,09,17,04,53,5.50
2018,09,17,04,54,5.50
2018,09,17,04,55,5.50
2018,09,17,04,56,5.50
2018,09,17,04,57,5.50
2018,09,17,04,58,5.50
2018,09,17,04,59,5.60
2018,09,17,05,00,5.60
2018,09,17,05,01,5.60
2018,09,17,05,02,5.60
2018,09,17,05,03,5.60
2018,09,17,05,04,5.60
2018,09,17,05,05,5.60
2018,09,17,05,06,5.60
2018,09,17,05,07,5.60
2018,09,17,05,08,5.60
2018,09,17,05,09,5.60
2018,09,17,05,10,5.60
2018,09,17,05,11,5.60
2018,09,17,05,12,5.60
2018,09,17,05,13,5.60
2018,09,17,05,14,5.60
2018,09,17,05,15,5.60
2018,09,17,05,16,5.60
2018,09,17,05,17,5.60
2018,09,17,05,18,5.60
2018,09,17,05,19,5.60
2018,09,17,05,20,5.50
2018,09,17,05,21,5.50
2018,09,17,05,22,5.50
2018,09,17,05,23,5.40
2018,09,17,05,24,5.40
2018,09,17,05,25,5.40
2018,09,17,05,26,5.40
2018,09,17,05,27,5.40
2018,09,17,05,28,5.30
2018,09,17,05,29,5.30
2018,09,17,05,30,5.30
2018,09,17,05,31,5.30
2018,09,17,05,32,5.30
2018,09,17,05,33,5.30
2018,09,17,05,34,5.30
2018,09,17,05,35,5.30
2018,09,17,05,36,5.20
2018,09,17,05,37,5.20
2018,09,17,05,38,5.20
2018,09,17,05,39,5.20
2018,09,17,05,40,5.20
2018,09,17,05,41,5.20
2018,09,17,05,42,5.10
2018,09,17,05,43,5.10
2018,09,17,05,44,5.10
2018,09,17,05,45,5.10
2018,09,17,05,46,5.10
2018,09,17,05,47,5.10
2018,09,17,05,48,5.10
2018,09,17,05,49,5.10
2018,09,17,05,50,5.10
2018,09,17,05,51,5.10
2018,09,17,05,52,5.10
2018,09,17,05,53,5.10
2018,09,17,05,54,5.10
2018,09,17,05,55,5.00
2018,09,17,05,56,4.90
2018,09,17,05,57,4.90
2018,09,17,05,58,4.90
2018,09,17,05,59,4.90
2018,09,17,06,00,4.90
2018,09,17,06,01,4.90
2018,09,17,06,02,4.90
2018,09,17,06,03,4.90
2018,09,17,06,04,4.90
2018,09,17,06,05,4.90
2018,09,17,06,06,4.90
2018,09,17,06,07,4.90
2018,09,17,06,08,4.90
2018,09,17,06,09,4.90
2018,09,17,06,10,4.90
2018,09,17,06,11,4.90
2018,09,17,06,12,4.80
2018,09,17,06,13,4.80
2018,09,17,06,14,4.80
2018,09,17,06,15,4.80
2018,09,17,06,16,4.70
2018,09,17,06,17,4.70
2018,09,17,06,18,4.70
2018,09,17,06,19,4.70
2018,09,17,06,20,4.70
2018,09,17,06,21,4.70
2018,09,17,06,22,4.70
2018,09,17,06,23,4.70
2018,09,17,06,24,4.70
2018,09,17,06,25,4.70
2018,09,17,06,26,4.70
2018,09,17,06,27,4.70
2018,09,17,06,28,4.70
2018,09,17,06,29,4.70
2018,09,17,06,30,4.70
2018,09,17,06,31,4.70
2018,09,17,06,32,4.70
2018,09,17,06,33,4.70
2018,09,17,06,34,4.70
2018,09,17,06,35,4.70
2018,09,17,06,36,4.70
2018,09,17,06,37,4.70
2018,09,17,06,38,4.70
2018,09,17,06,39,4.70
2018,09,17,06,40,4.70
2018,09,17,06,41,4.70
2018,09,17,06,42,4.70
2018,09,17,06,43,4.60
2018,09,17,06,44,4.60
2018,09,17,06,45,4.60
2018,09,17,06,46,4.60
2018,09,17,06,47,4.60
2018,09,17,06,48,4.60
2018,09,17,06,49,4.60
2018,09,17,06,50,4.60
2018,09,17,06,51,4.60
2018,09,17,06,52,4.60
2018,09,17,06,53,4.60
2018,09,17,06,54,4.70
2018,09,17,06,55,4.70
2018,09,17,06,56,4.70
2018,09,17,06,57,4.70
2018,09,17,06,58,4.60
2018,09,17,06,59,4.60
2018,09,17,07,00,4.60
2018,09,17,07,01,4.60
2018,09,17,07,02,4.60
2018,09,17,07,03,4.60
2018,09,17,07,04,4.60
2018,09,17,07,05,4.60
2018,09,17,07,06,4.60
2018,09,17,07,07,4.60
2018,09,17,07,08,4.60
2018,09,17,07,09,4.60
2018,09,17,07,10,4.50
2018,09,17,07,11,4.50
2018,09,17,07,12,4.50
2018,09,17,07,13,4.50
2018,09,17,07,14,4.50
2018,09,17,07,15,4.50
2018,09,17,07,16,4.50
2018,09,17,07,17,4.50
2018,09,17,07,18,4.50
2018,09,17,07,19,4.50
2018,09,17,07,20,4.50
2018,09,17,07,21,4.50
2018,09,17,07,22,4.50
2018,09,17,07,23,4.60
2018,09,17,07,24,4.60
2018,09,17,07,25,4.60
2018,09,17,07,26,4.60
2018,09,17,07,27,4.60
2018,09,17,07,28,4.60
2018,09,17,07,29,4.60
2018,09,17,07,30,4.60
2018,09,17,07,31,4.60
2018,09,17,07,32,4.60
2018,09,17,07,33,4.60
2018,09,17,07,34,4.60
2018,09,17,07,35,4.60
2018,09,17,07,36,4.60
2018,09,17,07,37,4.60
2018,09,17,07,38,4.60
2018,09,17,07,39,4.60
2018,09,17,07,40,4.60
2018,09,17,07,41,4.60
2018,09,17,07,42,4.60
2018,09,17,07,43,4.60
2018,09,17,07,44,4.60
2018,09,17,07,45,4.60
2018,09,17,07,46,4.60
2018,09,17,07,47,4.60
2018,09,17,07,48,4.60
2018,09,17,07,49,4.60
2018,09,17,07,50,4.60
2018,09,17,07,51,4.60
2018,09,17,07,52,4.70
2018,09,17,07,53,4.70
2018,09,17,07,54,4.70
2018,09,17,07,55,4.70
2018,09,17,07,56,4.70
2018,09,17,07,57,4.70
2018,09,17,07,58,4.70
2018,09,17,07,59,4.70
2018,09,17,08,00,4.70
2018,09,17,08,01,4.70
2018,09,17,08,02,4.70
2018,09,17,08,03,4.70
2018,09,17,08,04,4.70
2018,09,17,08,05,4.70
2018,09,17,08,06,4.70
2018,09,17,08,07,4.80
2018,09,17,08,08,4.80
2018,09,17,08,09,4.80
2018,09,17,08,10,4.80
2018,09,17,08,11,4.80
2018,09,17,08,12,4.90
2018,09,17,08,13,4.90
2018,09,17,08,14,4.90
2018,09,17,08,15,4.90
2018,09,17,08,16,4.90
2018,09,17,08,17,5.00
2018,09,17,08,18,5.10
2018,09,17,08,19,5.10
2018,09,17,08,20,5.20
2018,09,17,08,21,5.30
2018,09,17,08,22,5.40
2018,09,17,08,23,5.50
2018,09,17,08,24,5.50
2018,09,17,08,25,5.60
2018,09,17,08,26,5.70
2018,09,17,08,27,5.70
2018,09,17,08,28,5.70
2018,09,17,08,29,5.70
2018,09,17,08,30,5.80
2018,09,17,08,31,5.80
2018,09,17,08,32,5.90
2018,09,17,08,33,5.90
2018,09,17,08,34,5.90
2018,09,17,08,35,6.00
2018,09,17,08,36,6.00
2018,09,17,08,37,6.00
2018,09,17,08,38,6.00
2018,09,17,08,39,6.10
2018,09,17,08,40,6.20
2018,09,17,08,41,6.20
2018,09,17,08,42,6.20
2018,09,17,08,43,6.30
2018,09,17,08,44,6.30
2018,09,17,08,45,6.30
2018,09,17,08,46,6.40
2018,09,17,08,47,6.40
2018,09,17,08,48,6.40
2018,09,17,08,49,6.50
2018,09,17,08,50,6.60
2018,09,17,08,51,6.60
2018,09,17,08,52,6.70
2018,09,17,08,53,6.70
2018,09,17,08,54,6.80
2018,09,17,08,55,6.80
2018,09,17,08,56,6.80
2018,09,17,08,57,6.80
2018,09,17,08,58,6.80
2018,09,17,08,59,6.80
2018,09,17,09,00,6.80
2018,09,17,09,01,6.90
2018,09,17,09,02,6.90
2018,09,17,09,03,6.90
2018,09,17,09,04,7.00
2018,09,17,09,05,7.00
2018,09,17,09,06,7.00
2018,09,17,09,07,7.10
2018,09,17,09,08,7.10
2018,09,17,09,09,7.20
2018,09,17,09,10,7.20
2018,09,17,09,11,7.30
2018,09,17,09,12,7.30
2018,09,17,09,13,7.30
2018,09,17,09,14,7.40
2018,09,17,09,15,7.40
2018,09,17,09,16,7.50
2018,09,17,09,17,7.60
2018,09,17,09,18,7.60
2018,09,17,09,19,7.70
2018,09,17,09,20,7.70
2018,09,17,09,21,7.80
2018,09,17,09,22,7.80
2018,09,17,09,23,7.90
2018,09,17,09,24,7.90
2018,09,17,09,25,8.00
2018,09,17,09,26,8.00
2018,09,17,09,27,8.00
2018,09,17,09,28,8.10
2018,09,17,09,29,8.20
2018,09,17,09,30,8.20
2018,09,17,09,31,8.20
2018,09,17,09,32,8.30
2018,09,17,09,33,8.30
2018,09,17,09,34,8.40
2018,09,17,09,35,8.40
2018,09,17,09,36,8.50
2018,09,17,09,37,8.50
2018,09,17,09,38,8.60
2018,09,17,09,39,8.60
2018,09,17,09,40,8.70
2018,09,17,09,41,8.70
2018,09,17,09,42,8.90
2018,09,17,09,43,8.90
2018,09,17,09,44,9.00
2018,09,17,09,45,9.10
2018,09,17,09,46,9.10
2018,09,17,09,47,9.20
2018,09,17,09,48,9.20
2018,09,17,09,49,9.30
2018,09,17,09,50,9.40
2018,09,17,09,51,9.60
2018,09,17,09,52,9.70
2018,09,17,09,53,9.90
2018,09,17,09,54,10.10
2018,09,17,09,55,10.30
2018,09,17,09,56,10.40
2018,09,17,09,57,10.60
2018,09,17,09,58,10.60
2018,09,17,09,59,10.80
2018,09,17,10,00,10.90
2018,09,17,10,01,11.10
2018,09,17,10,02,11.20
2018,09,17,10,03,11.30
2018,09,17,10,04,11.40
2018,09,17,10,05,11.50
2018,09,17,10,06,11.60
2018,09,17,10,07,11.70
2018,09,17,10,08,11.80
2018,09,17,10,09,11.90
2018,09,17,10,10,11.90
2018,09,17,10,11,12.00
2018,09,17,10,12,12.10
2018,09,17,10,13,12.10
2018,09,17,10,14,12.20
2018,09,17,10,15,12.20
2018,09,17,10,16,12.30
2018,09,17,10,17,12.40
2018,09,17,10,18,12.50
2018,09,17,10,19,12.50
2018,09,17,10,20,12.60
2018,09,17,10,21,12.70
2018,09,17,10,22,12.80
2018,09,17,10,23,12.80
2018,09,17,10,24,12.90
2018,09,17,10,25,12.90
2018,09,17,10,26,13.00
2018,09,17,10,27,13.00
2018,09,17,10,28,13.00
2018,09,17,10,29,13.10
2018,09,17,10,30,13.20
2018,09,17,10,31,13.20
2018,09,17,10,32,13.30
2018,09,17,10,33,13.30
2018,09,17,10,34,13.20
2018,09,17,10,35,13.20
2018,09,17,10,36,13.10
2018,09,17,10,37,13.10
2018,09,17,10,38,13.10
2018,09,17,10,39,13.10
2018,09,17,10,40,13.10
2018,09,17,10,41,13.10
2018,09,17,10,42,13.20
2018,09,17,10,43,13.20
2018,09,17,10,44,13.30
2018,09,17,10,45,13.30
2018,09,17,10,46,13.40
2018,09,17,10,47,13.50
2018,09,17,10,48,13.50
2018,09,17,10,49,13.50
2018,09,17,10,50,13.50
2018,09,17,10,51,13.60
2018,09,17,10,52,13.70
2018,09,17,10,53,13.70
2018,09,17,10,54,13.70
2018,09,17,10,55,13.70
2018,09,17,10,56,13.70
2018,09,17,10,57,13.70
2018,09,17,10,58,13.70
2018,09,17,10,59,13.70
2018,09,17,11,00,13.70
2018,09,17,11,01,13.70
2018,09,17,11,02,13.70
2018,09,17,11,03,13.70
2018,09,17,11,04,13.80
2018,09,17,11,05,13.70
2018,09,17,11,06,13.70
2018,09,17,11,07,13.70
2018,09,17,11,08,13.70
2018,09,17,11,09,13.70
2018,09,17,11,10,13.60
2018,09,17,11,11,13.60
2018,09,17,11,12,13.50
2018,09,17,11,13,13.40
2018,09,17,11,14,13.30
2018,09,17,11,15,13.20
2018,09,17,11,16,13.10
2018,09,17,11,17,13.00
2018,09,17,11,18,13.00
2018,09,17,11,19,12.90
2018,09,17,11,20,12.90
2018,09,17,11,21,12.90
2018,09,17,11,22,12.90
2018,09,17,11,23,13.00
2018,09,17,11,24,13.00
2018,09,17,11,25,13.10
2018,09,17,11,26,13.20
2018,09,17,11,27,13.30
2018,09,17,11,28,13.30
2018,09,17,11,29,13.40
2018,09,17,11,30,13.40
2018,09,17,11,31,13.50
2018,09,17,11,32,13.50
2018,09,17,11,33,13.60
2018,09,17,11,34,13.60
2018,09,17,11,35,13.60
2018,09,17,11,36,13.70
2018,09,17,11,37,13.70
2018,09,17,11,38,13.80
2018,09,17,11,39,13.90
2018,09,17,11,40,13.90
2018,09,17,11,41,14.00
2018,09,17,11,42,14.00
2018,09,17,11,43,14.10
2018,09,17,11,44,14.10
2018,09,17,11,45,14.10
2018,09,17,11,46,14.10
2018,09,17,11,47,14.20
2018,09,17,11,48,14.20
2018,09,17,11,49,14.20
2018,09,17,11,50,14.20
2018,09,17,11,51,14.30
2018,09,17,11,52,14.40
2018,09,17,11,53,14.50
2018,09,17,11,54,14.50
2018,09,17,11,55,14.60
2018,09,17,11,56,14.70
2018,09,17,11,57,14.70
2018,09,17,11,58,14.70
2018,09,17,11,59,14.70
2018,09,17,12,00,14.60
2018,09,17,12,01,14.50
2018,09,17,12,02,14.40
2018,09,17,12,03,14.40
2018,09,17,12,04,14.30
2018,09,17,12,05,14.20
2018,09,17,12,06,14.00
2018,09,17,12,07,13.90
2018,09,17,12,08,13.90
2018,09,17,12,09,13.70
2018,09,17,12,10,13.70
2018,09,17,12,11,13.60
2018,09,17,12,12,13.50
2018,09,17,12,13,13.40
2018,09,17,12,14,13.40
2018,09,17,12,15,13.30
2018,09,17,12,16,13.30
2018,09,17,12,17,13.30
2018,09,17,12,18,13.30
2018,09,17,12,19,13.30
2018,09,17,12,20,13.30
2018,09,17,12,21,13.30
2018,09,17,12,22,13.30
2018,09,17,12,23,13.30
2018,09,17,12,24,13.30
2018,09,17,12,25,13.30
2018,09,17,12,26,13.20
2018,09,17,12,27,13.20
2018,09,17,12,28,13.30
2018,09,17,12,29,13.30
2018,09,17,12,30,13.40
2018,09,17,12,31,13.50
2018,09,17,12,32,13.60
2018,09,17,12,33,13.70
2018,09,17,12,34,13.80
2018,09,17,12,35,13.90
2018,09,17,12,36,14.00
2018,09,17,12,37,14.20
2018,09,17,12,38,14.20
2018,09,17,12,39,14.40
2018,09,17,12,40,14.40
2018,09,17,12,41,14.50
2018,09,17,12,42,14.60
2018,09,17,12,43,14.70
2018,09,17,12,44,14.80
2018,09,17,12,45,14.80
2018,09,17,12,46,14.80
2018,09,17,12,47,15.00
2018,09,17,12,48,15.10
2018,09,17,12,49,15.20
2018,09,17,12,50,15.30
2018,09,17,12,51,15.30
2018,09,17,12,52,15.40
2018,09,17,12,53,15.30
2018,09,17,12,54,15.30
2018,09,17,12,55,15.30
2018,09,17,12,56,15.30
2018,09,17,12,57,15.30
2018,09,17,12,58,15.30
2018,09,17,12,59,15.20
2018,09,17,13,00,15.20
2018,09,17,13,01,15.10
2018,09,17,13,02,15.00
2018,09,17,13,03,14.90
2018,09,17,13,04,14.80
2018,09,17,13,05,14.70
2018,09,17,13,06,14.60
2018,09,17,13,07,14.40
2018,09,17,13,08,14.30
2018,09,17,13,09,14.20
2018,09,17,13,10,14.10
2018,09,17,13,11,14.10
2018,09,17,13,12,14.10
2018,09,17,13,13,14.00
2018,09,17,13,14,14.00
2018,09,17,13,15,14.00
2018,09,17,13,16,14.00
2018,09,17,13,17,13.90
2018,09,17,13,18,13.90
2018,09,17,13,19,13.90
2018,09,17,13,20,13.90
2018,09,17,13,21,13.90
2018,09,17,13,22,13.90
2018,09,17,13,23,13.90
2018,09,17,13,24,14.00
2018,09,17,13,25,14.00
2018,09,17,13,26,14.10
2018,09,17,13,27,14.10
2018,09,17,13,28,14.20
2018,09,17,13,29,14.30
2018,09,17,13,30,14.40
2018,09,17,13,31,14.40
2018,09,17,13,32,14.50
2018,09,17,13,33,14.50
2018,09,17,13,34,14.50
2018,09,17,13,35,14.40
2018,09,17,13,36,14.40
2018,09,17,13,37,14.40
2018,09,17,13,38,14.50
2018,09,17,13,39,14.40
2018,09,17,13,40,14.40
2018,09,17,13,41,14.40
2018,09,17,13,42,14.40
2018,09,17,13,43,14.30
2018,09,17,13,44,14.30
2018,09,17,13,45,14.30
2018,09,17,13,46,14.40
2018,09,17,13,47,14.40
2018,09,17,13,48,14.40
2018,09,17,13,49,14.40
2018,09,17,13,50,14.40
2018,09,17,13,51,14.40
2018,09,17,13,52,14.40
2018,09,17,13,53,14.30
2018,09,17,13,54,14.30
2018,09,17,13,55,14.30
2018,09,17,13,56,14.30
2018,09,17,13,57,14.20
2018,09,17,13,58,14.20
2018,09,17,13,59,14.20
2018,09,17,14,00,14.20
2018,09,17,14,01,14.20
2018,09,17,14,02,14.20
2018,09,17,14,03,14.10
2018,09,17,14,04,14.10
2018,09,17,14,05,14.10
2018,09,17,14,06,14.10
2018,09,17,14,07,14.00
2018,09,17,14,08,14.00
2018,09,17,14,09,14.00
2018,09,17,14,10,14.00
2018,09,17,14,11,14.00
2018,09,17,14,12,14.00
2018,09,17,14,13,14.00
2018,09,17,14,14,14.00
2018,09,17,14,15,14.10
2018,09,17,14,16,14.20
2018,09,17,14,17,14.40
2018,09,17,14,18,14.60
2018,09,17,14,19,14.70
2018,09,17,14,20,14.80
2018,09,17,14,21,15.00
2018,09,17,14,22,15.10
2018,09,17,14,23,15.20
2018,09,17,14,24,15.30
2018,09,17,14,25,15.40
2018,09,17,14,26,15.50
2018,09,17,14,27,15.60
2018,09,17,14,28,15.60
2018,09,17,14,29,15.60
2018,09,17,14,30,15.60
2018,09,17,14,31,15.50
2018,09,17,14,32,15.40
2018,09,17,14,33,15.30
2018,09,17,14,34,15.20
2018,09,17,14,35,15.10
2018,09,17,14,36,15.00
2018,09,17,14,37,14.90
2018,09,17,14,38,14.90
2018,09,17,14,39,14.80
2018,09,17,14,40,14.80
2018,09,17,14,41,14.70
2018,09,17,14,42,14.70
2018,09,17,14,43,14.60
2018,09,17,14,44,14.60
2018,09,17,14,45,14.60
2018,09,17,14,46,14.60
2018,09,17,14,47,14.60
2018,09,17,14,48,14.60
2018,09,17,14,49,14.50
2018,09,17,14,50,14.50
2018,09,17,14,51,14.50
2018,09,17,14,52,14.50
2018,09,17,14,53,14.40
2018,09,17,14,54,14.40
2018,09,17,14,55,14.40
2018,09,17,14,56,14.40
2018,09,17,14,57,14.30
2018,09,17,14,58,14.30
2018,09,17,14,59,14.20
2018,09,17,15,00,14.20
2018,09,17,15,01,14.20
2018,09,17,15,02,14.20
2018,09,17,15,03,14.10
2018,09,17,15,04,14.10
2018,09,17,15,05,14.00
2018,09,17,15,06,14.00
2018,09,17,15,07,13.90
2018,09,17,15,08,13.90
2018,09,17,15,09,13.90
2018,09,17,15,10,13.80
2018,09,17,15,11,13.80
2018,09,17,15,12,13.80
2018,09,17,15,13,13.80
2018,09,17,15,14,13.80
2018,09,17,15,15,13.70
2018,09,17,15,16,13.70
2018,09,17,15,17,13.70
2018,09,17,15,18,13.70
2018,09,17,15,19,13.70
2018,09,17,15,20,13.70
2018,09,17,15,21,13.70
2018,09,17,15,22,13.60
2018,09,17,15,23,13.60
2018,09,17,15,24,13.50
2018,09,17,15,25,13.50
2018,09,17,15,26,13.40
2018,09,17,15,27,13.40
2018,09,17,15,28,13.30
2018,09,17,15,29,13.30
2018,09,17,15,30,13.30
2018,09,17,15,31,13.30
2018,09,17,15,32,13.30
2018,09,17,15,33,13.30
2018,09,17,15,34,13.30
2018,09,17,15,35,13.30
2018,09,17,15,36,13.20
2018,09,17,15,37,13.20
2018,09,17,15,38,13.20
2018,09,17,15,39,13.20
2018,09,17,15,40,13.20
2018,09,17,15,41,13.20
2018,09,17,15,42,13.10
2018,09,17,15,43,13.10
2018,09,17,15,44,13.10
2018,09,17,15,45,13.10
2018,09,17,15,46,13.10
2018,09,17,15,47,13.00
2018,09,17,15,48,13.00
2018,09,17,15,49,13.00
2018,09,17,15,50,13.00
2018,09,17,15,51,13.00
2018,09,17,15,52,12.90
2018,09,17,15,53,12.90
2018,09,17,15,54,12.90
2018,09,17,15,55,12.90
2018,09,17,15,56,12.80
2018,09,17,15,57,12.80
2018,09,17,15,58,12.80
2018,09,17,15,59,12.80
2018,09,17,16,00,12.80
2018,09,17,16,01,12.80
2018,09,17,16,02,12.80
2018,09,17,16,03,12.80
2018,09,17,16,04,12.80
2018,09,17,16,05,12.80
2018,09,17,16,06,12.90
2018,09,17,16,07,12.80
2018,09,17,16,08,12.90
2018,09,17,16,09,13.00
2018,09,17,16,10,13.00
2018,09,17,16,11,13.10
2018,09,17,16,12,13.10
2018,09,17,16,13,13.10
2018,09,17,16,14,13.10
2018,09,17,16,15,13.10
2018,09,17,16,16,13.10
2018,09,17,16,17,13.10
2018,09,17,16,18,13.00
2018,09,17,16,19,13.00
2018,09,17,16,20,13.00
2018,09,17,16,21,13.00
2018,09,17,16,22,12.90
2018,09,17,16,23,12.90
2018,09,17,16,24,12.80
2018,09,17,16,25,12.80
2018,09,17,16,26,12.80
2018,09,17,16,27,12.80
2018,09,17,16,28,12.80
2018,09,17,16,29,12.80
2018,09,17,16,30,12.80
2018,09,17,16,31,12.80
2018,09,17,16,32,12.80
2018,09,17,16,33,12.80
2018,09,17,16,34,12.80
2018,09,17,16,35,12.80
2018,09,17,16,36,12.80
2018,09,17,16,37,12.90
2018,09,17,16,38,12.90
2018,09,17,16,39,12.90
2018,09,17,16,40,13.00
2018,09,17,16,41,13.10
2018,09,17,16,42,13.10
2018,09,17,16,43,13.10
2018,09,17,16,44,13.20
2018,09,17,16,45,13.20
2018,09,17,16,46,13.20
2018,09,17,16,47,13.30
2018,09,17,16,48,13.30
2018,09,17,16,49,13.30
2018,09,17,16,50,13.40
2018,09,17,16,51,13.40
2018,09,17,16,52,13.40
2018,09,17,16,53,13.50
2018,09,17,16,54,13.50
2018,09,17,16,55,13.50
2018,09,17,16,56,13.60
2018,09,17,16,57,13.60
2018,09,17,16,58,13.60
2018,09,17,16,59,13.60
2018,09,17,17,00,13.60
2018,09,17,17,01,13.60
2018,09,17,17,02,13.60
2018,09,17,17,03,13.60
2018,09,17,17,04,13.60
2018,09,17,17,05,13.60
2018,09,17,17,06,13.60
2018,09,17,17,07,13.60
2018,09,17,17,08,13.60
2018,09,17,17,09,13.60
2018,09,17,17,10,13.60
2018,09,17,17,11,13.60
2018,09,17,17,12,13.60
2018,09,17,17,13,13.60
2018,09,17,17,14,13.60
2018,09,17,17,15,13.60
2018,09,17,17,16,13.60
2018,09,17,17,17,13.60
2018,09,17,17,18,13.60
2018,09,17,17,19,13.60
2018,09,17,17,20,13.60
2018,09,17,17,21,13.50
2018,09,17,17,22,13.50
2018,09,17,17,23,13.50
2018,09,17,17,24,13.50
2018,09,17,17,25,13.50
2018,09,17,17,26,13.40
2018,09,17,17,27,13.40
2018,09,17,17,28,13.40
2018,09,17,17,29,13.40
2018,09,17,17,30,13.30
2018,09,17,17,31,13.30
2018,09,17,17,32,13.30
2018,09,17,17,33,13.30
2018,09,17,17,34,13.30
2018,09,17,17,35,13.20
2018,09,17,17,36,13.20
2018,09,17,17,37,13.20
2018,09,17,17,38,13.20
2018,09,17,17,39,13.20
2018,09,17,17,40,13.20
2018,09,17,17,41,13.20
2018,09,17,17,42,13.10
2018,09,17,17,43,13.20
2018,09,17,17,44,13.20
2018,09,17,17,45,13.10